Year,Month,Day,Hour,Minute,Value (Times are PST for temperature in C)
2007,07,28,00,00,17.90
2007,07,28,00,01,17.90
2007,07,28,00,02,17.90
2007,07,28,00,03,17.90
2007,07,28,00,04,17.90
2007,07,28,00,05,17.90
2007,07,28,00,06,17.90
2007,07,28,00,07,17.90
2007,07,28,00,08,17.90
2007,07,28,00,09,17.90
2007,07,28,00,10,17.90
2007,07,28,00,11,17.80
2007,07,28,00,12,17.80
2007,07,28,00,13,17.80
2007,07,28,00,14,17.80
2007,07,28,00,15,17.80
2007,07,28,00,16,17.70
2007,07,28,00,17,17.70
2007,07,28,00,18,17.70
2007,07,28,00,19,17.70
2007,07,28,00,20,17.60
2007,07,28,00,21,17.60
2007,07,28,00,22,17.60
2007,07,28,00,23,17.60
2007,07,28,00,24,17.60
2007,07,28,00,25,17.60
2007,07,28,00,26,17.60
2007,07,28,00,27,17.60
2007,07,28,00,28,17.50
2007,07,28,00,29,17.50
2007,07,28,00,30,17.50
2007,07,28,00,31,17.40
2007,07,28,00,32,17.40
2007,07,28,00,33,17.40
2007,07,28,00,34,17.40
2007,07,28,00,35,17.30
2007,07,28,00,36,17.30
2007,07,28,00,37,17.30
2007,07,28,00,38,17.30
2007,07,28,00,39,17.30
2007,07,28,00,40,17.30
2007,07,28,00,41,17.20
2007,07,28,00,42,17.20
2007,07,28,00,43,17.20
2007,07,28,00,44,17.20
2007,07,28,00,45,17.10
2007,07,28,00,46,17.10
2007,07,28,00,47,17.10
2007,07,28,00,48,17.10
2007,07,28,00,49,17.00
2007,07,28,00,50,17.00
2007,07,28,00,51,17.00
2007,07,28,00,52,17.00
2007,07,28,00,53,17.00
2007,07,28,00,54,17.00
2007,07,28,00,55,17.00
2007,07,28,00,56,17.00
2007,07,28,00,57,17.00
2007,07,28,00,58,17.00
2007,07,28,00,59,17.00
2007,07,28,01,00,17.00
2007,07,28,01,01,17.10
2007,07,28,01,02,17.10
2007,07,28,01,03,17.10
2007,07,28,01,04,17.10
2007,07,28,01,05,17.10
2007,07,28,01,06,17.10
2007,07,28,01,07,17.10
2007,07,28,01,08,17.10
2007,07,28,01,09,17.00
2007,07,28,01,10,17.00
2007,07,28,01,11,17.00
2007,07,28,01,12,17.00
2007,07,28,01,13,17.00
2007,07,28,01,14,17.00
2007,07,28,01,15,17.00
2007,07,28,01,16,17.00
2007,07,28,01,17,17.00
2007,07,28,01,18,17.00
2007,07,28,01,19,16.90
2007,07,28,01,20,16.90
2007,07,28,01,21,16.90
2007,07,28,01,22,16.90
2007,07,28,01,23,16.90
2007,07,28,01,24,16.90
2007,07,28,01,25,16.90
2007,07,28,01,26,16.90
2007,07,28,01,27,16.90
2007,07,28,01,28,16.90
2007,07,28,01,29,16.90
2007,07,28,01,30,16.90
2007,07,28,01,31,16.90
2007,07,28,01,32,16.90
2007,07,28,01,33,16.90
2007,07,28,01,34,16.90
2007,07,28,01,35,16.90
2007,07,28,01,36,16.80
2007,07,28,01,37,16.80
2007,07,28,01,38,16.80
2007,07,28,01,39,16.80
2007,07,28,01,40,16.80
2007,07,28,01,41,16.80
2007,07,28,01,42,16.70
2007,07,28,01,43,16.70
2007,07,28,01,44,16.70
2007,07,28,01,45,16.70
2007,07,28,01,46,16.70
2007,07,28,01,47,16.60
2007,07,28,01,48,16.60
2007,07,28,01,49,16.60
2007,07,28,01,50,16.60
2007,07,28,01,51,16.60
2007,07,28,01,52,16.50
2007,07,28,01,53,16.50
2007,07,28,01,54,16.50
2007,07,28,01,55,16.40
2007,07,28,01,56,16.40
2007,07,28,01,57,16.40
2007,07,28,01,58,16.40
2007,07,28,01,59,16.40
2007,07,28,02,00,16.40
2007,07,28,02,01,16.30
2007,07,28,02,02,16.30
2007,07,28,02,03,16.30
2007,07,28,02,04,16.30
2007,07,28,02,05,16.30
2007,07,28,02,06,16.30
2007,07,28,02,07,16.30
2007,07,28,02,08,16.30
2007,07,28,02,09,16.30
2007,07,28,02,10,16.30
2007,07,28,02,11,16.20
2007,07,28,02,12,16.20
2007,07,28,02,13,16.20
2007,07,28,02,14,16.20
2007,07,28,02,15,16.20
2007,07,28,02,16,16.20
2007,07,28,02,17,16.20
2007,07,28,02,18,16.20
2007,07,28,02,19,16.20
2007,07,28,02,20,16.20
2007,07,28,02,21,16.20
2007,07,28,02,22,16.20
2007,07,28,02,23,16.20
2007,07,28,02,24,16.20
2007,07,28,02,25,16.20
2007,07,28,02,26,16.20
2007,07,28,02,27,16.10
2007,07,28,02,28,16.10
2007,07,28,02,29,16.10
2007,07,28,02,30,16.10
2007,07,28,02,31,16.10
2007,07,28,02,32,16.00
2007,07,28,02,33,16.00
2007,07,28,02,34,15.90
2007,07,28,02,35,15.90
2007,07,28,02,36,15.90
2007,07,28,02,37,15.90
2007,07,28,02,38,15.80
2007,07,28,02,39,15.80
2007,07,28,02,40,15.80
2007,07,28,02,41,15.80
2007,07,28,02,42,15.70
2007,07,28,02,43,15.70
2007,07,28,02,44,15.70
2007,07,28,02,45,15.60
2007,07,28,02,46,15.60
2007,07,28,02,47,15.60
2007,07,28,02,48,15.60
2007,07,28,02,49,15.60
2007,07,28,02,50,15.50
2007,07,28,02,51,15.50
2007,07,28,02,52,15.50
2007,07,28,02,53,15.50
2007,07,28,02,54,15.40
2007,07,28,02,55,15.40
2007,07,28,02,56,15.40
2007,07,28,02,57,15.40
2007,07,28,02,58,15.40
2007,07,28,02,59,15.40
2007,07,28,03,00,15.30
2007,07,28,03,01,15.30
2007,07,28,03,02,15.30
2007,07,28,03,03,15.30
2007,07,28,03,04,15.30
2007,07,28,03,05,15.30
2007,07,28,03,06,15.20
2007,07,28,03,07,15.20
2007,07,28,03,08,15.20
2007,07,28,03,09,15.20
2007,07,28,03,10,15.10
2007,07,28,03,11,15.10
2007,07,28,03,12,15.10
2007,07,28,03,13,15.00
2007,07,28,03,14,15.00
2007,07,28,03,15,15.00
2007,07,28,03,16,15.00
2007,07,28,03,17,15.00
2007,07,28,03,18,15.00
2007,07,28,03,19,15.00
2007,07,28,03,20,15.00
2007,07,28,03,21,15.00
2007,07,28,03,22,15.00
2007,07,28,03,23,15.00
2007,07,28,03,24,15.00
2007,07,28,03,25,14.90
2007,07,28,03,26,14.90
2007,07,28,03,27,14.80
2007,07,28,03,28,14.80
2007,07,28,03,29,14.80
2007,07,28,03,30,14.80
2007,07,28,03,31,14.80
2007,07,28,03,32,14.70
2007,07,28,03,33,14.70
2007,07,28,03,34,14.70
2007,07,28,03,35,14.70
2007,07,28,03,36,14.60
2007,07,28,03,37,14.60
2007,07,28,03,38,14.60
2007,07,28,03,39,14.60
2007,07,28,03,40,14.50
2007,07,28,03,41,14.50
2007,07,28,03,42,14.50
2007,07,28,03,43,14.50
2007,07,28,03,44,14.50
2007,07,28,03,45,14.40
2007,07,28,03,46,14.40
2007,07,28,03,47,14.40
2007,07,28,03,48,14.40
2007,07,28,03,49,14.40
2007,07,28,03,50,14.40
2007,07,28,03,51,14.40
2007,07,28,03,52,14.40
2007,07,28,03,53,14.40
2007,07,28,03,54,14.30
2007,07,28,03,55,14.30
2007,07,28,03,56,14.30
2007,07,28,03,57,14.30
2007,07,28,03,58,14.30
2007,07,28,03,59,14.30
2007,07,28,04,00,14.30
2007,07,28,04,01,14.30
2007,07,28,04,02,14.30
2007,07,28,04,03,14.30
2007,07,28,04,04,14.30
2007,07,28,04,05,14.30
2007,07,28,04,06,14.30
2007,07,28,04,07,14.30
2007,07,28,04,08,14.30
2007,07,28,04,09,14.30
2007,07,28,04,10,14.30
2007,07,28,04,11,14.20
2007,07,28,04,12,14.20
2007,07,28,04,13,14.20
2007,07,28,04,14,14.20
2007,07,28,04,15,14.20
2007,07,28,04,16,14.20
2007,07,28,04,17,14.20
2007,07,28,04,18,14.20
2007,07,28,04,19,14.20
2007,07,28,04,20,14.20
2007,07,28,04,21,14.20
2007,07,28,04,22,14.20
2007,07,28,04,23,14.20
2007,07,28,04,24,14.20
2007,07,28,04,25,14.20
2007,07,28,04,26,14.20
2007,07,28,04,27,14.20
2007,07,28,04,28,14.20
2007,07,28,04,29,14.20
2007,07,28,04,30,14.20
2007,07,28,04,31,14.20
2007,07,28,04,32,14.10
2007,07,28,04,33,14.10
2007,07,28,04,34,14.10
2007,07,28,04,35,14.10
2007,07,28,04,36,14.10
2007,07,28,04,37,14.10
2007,07,28,04,38,14.10
2007,07,28,04,39,14.10
2007,07,28,04,40,14.10
2007,07,28,04,41,14.10
2007,07,28,04,42,14.10
2007,07,28,04,43,14.10
2007,07,28,04,44,14.10
2007,07,28,04,45,14.10
2007,07,28,04,46,14.10
2007,07,28,04,47,14.10
2007,07,28,04,48,14.10
2007,07,28,04,49,14.10
2007,07,28,04,50,14.10
2007,07,28,04,51,14.10
2007,07,28,04,52,14.10
2007,07,28,04,53,14.10
2007,07,28,04,54,14.10
2007,07,28,04,55,14.10
2007,07,28,04,56,14.10
2007,07,28,04,57,14.10
2007,07,28,04,58,14.20
2007,07,28,04,59,14.20
2007,07,28,05,00,14.20
2007,07,28,05,01,14.20
2007,07,28,05,02,14.20
2007,07,28,05,03,14.20
2007,07,28,05,04,14.20
2007,07,28,05,05,14.30
2007,07,28,05,06,14.30
2007,07,28,05,07,14.30
2007,07,28,05,08,14.30
2007,07,28,05,09,14.30
2007,07,28,05,10,14.40
2007,07,28,05,11,14.40
2007,07,28,05,12,14.40
2007,07,28,05,13,14.50
2007,07,28,05,14,14.50
2007,07,28,05,15,14.50
2007,07,28,05,16,14.60
2007,07,28,05,17,14.60
2007,07,28,05,18,14.60
2007,07,28,05,19,14.60
2007,07,28,05,20,14.60
2007,07,28,05,21,14.60
2007,07,28,05,22,14.60
2007,07,28,05,23,14.60
2007,07,28,05,24,14.60
2007,07,28,05,25,14.60
2007,07,28,05,26,14.60
2007,07,28,05,27,14.60
2007,07,28,05,28,14.60
2007,07,28,05,29,14.60
2007,07,28,05,30,14.60
2007,07,28,05,31,14.60
2007,07,28,05,32,14.60
2007,07,28,05,33,14.70
2007,07,28,05,34,14.70
2007,07,28,05,35,14.70
2007,07,28,05,36,14.70
2007,07,28,05,37,14.70
2007,07,28,05,38,14.70
2007,07,28,05,39,14.70
2007,07,28,05,40,14.70
2007,07,28,05,41,14.80
2007,07,28,05,42,14.80
2007,07,28,05,43,14.80
2007,07,28,05,44,14.80
2007,07,28,05,45,14.80
2007,07,28,05,46,14.80
2007,07,28,05,47,14.90
2007,07,28,05,48,14.90
2007,07,28,05,49,14.90
2007,07,28,05,50,14.90
2007,07,28,05,51,15.00
2007,07,28,05,52,15.00
2007,07,28,05,53,15.00
2007,07,28,05,54,15.00
2007,07,28,05,55,15.00
2007,07,28,05,56,15.00
2007,07,28,05,57,15.00
2007,07,28,05,58,15.00
2007,07,28,05,59,15.00
2007,07,28,06,00,15.00
2007,07,28,06,01,15.00
2007,07,28,06,02,15.00
2007,07,28,06,03,15.00
2007,07,28,06,04,15.00
2007,07,28,06,05,15.10
2007,07,28,06,06,15.10
2007,07,28,06,07,15.10
2007,07,28,06,08,15.20
2007,07,28,06,09,15.20
2007,07,28,06,10,15.20
2007,07,28,06,11,15.20
2007,07,28,06,12,15.20
2007,07,28,06,13,15.30
2007,07,28,06,14,15.30
2007,07,28,06,15,15.30
2007,07,28,06,16,15.30
2007,07,28,06,17,15.30
2007,07,28,06,18,15.30
2007,07,28,06,19,15.30
2007,07,28,06,20,15.30
2007,07,28,06,21,15.30
2007,07,28,06,22,15.20
2007,07,28,06,23,15.20
2007,07,28,06,24,15.20
2007,07,28,06,25,15.10
2007,07,28,06,26,15.10
2007,07,28,06,27,15.00
2007,07,28,06,28,15.00
2007,07,28,06,29,15.00
2007,07,28,06,30,15.00
2007,07,28,06,31,15.00
2007,07,28,06,32,15.00
2007,07,28,06,33,15.00
2007,07,28,06,34,15.00
2007,07,28,06,35,15.00
2007,07,28,06,36,15.00
2007,07,28,06,37,15.00
2007,07,28,06,38,15.00
2007,07,28,06,39,15.00
2007,07,28,06,40,15.00
2007,07,28,06,41,15.00
2007,07,28,06,42,15.00
2007,07,28,06,43,15.00
2007,07,28,06,44,15.00
2007,07,28,06,45,15.00
2007,07,28,06,46,15.00
2007,07,28,06,47,15.00
2007,07,28,06,48,15.00
2007,07,28,06,49,15.00
2007,07,28,06,50,15.10
2007,07,28,06,51,15.10
2007,07,28,06,52,15.10
2007,07,28,06,53,15.10
2007,07,28,06,54,15.20
2007,07,28,06,55,15.20
2007,07,28,06,56,15.20
2007,07,28,06,57,15.20
2007,07,28,06,58,15.20
2007,07,28,06,59,15.20
2007,07,28,07,00,15.20
2007,07,28,07,01,15.20
2007,07,28,07,02,15.20
2007,07,28,07,03,15.20
2007,07,28,07,04,15.20
2007,07,28,07,05,15.20
2007,07,28,07,06,15.20
2007,07,28,07,07,15.10
2007,07,28,07,08,15.10
2007,07,28,07,09,15.00
2007,07,28,07,10,15.00
2007,07,28,07,11,15.00
2007,07,28,07,12,15.00
2007,07,28,07,13,15.00
2007,07,28,07,14,15.00
2007,07,28,07,15,15.00
2007,07,28,07,16,14.90
2007,07,28,07,17,14.90
2007,07,28,07,18,14.80
2007,07,28,07,19,14.80
2007,07,28,07,20,14.80
2007,07,28,07,21,14.80
2007,07,28,07,22,14.80
2007,07,28,07,23,14.80
2007,07,28,07,24,14.80
2007,07,28,07,25,14.90
2007,07,28,07,26,15.00
2007,07,28,07,27,15.00
2007,07,28,07,28,15.00
2007,07,28,07,29,15.00
2007,07,28,07,30,15.00
2007,07,28,07,31,15.00
2007,07,28,07,32,15.00
2007,07,28,07,33,15.00
2007,07,28,07,34,15.10
2007,07,28,07,35,15.10
2007,07,28,07,36,15.20
2007,07,28,07,37,15.30
2007,07,28,07,38,15.30
2007,07,28,07,39,15.40
2007,07,28,07,40,15.50
2007,07,28,07,41,15.60
2007,07,28,07,42,15.60
2007,07,28,07,43,15.70
2007,07,28,07,44,15.80
2007,07,28,07,45,15.80
2007,07,28,07,46,15.90
2007,07,28,07,47,15.90
2007,07,28,07,48,15.90
2007,07,28,07,49,15.90
2007,07,28,07,50,15.90
2007,07,28,07,51,15.90
2007,07,28,07,52,15.90
2007,07,28,07,53,16.00
2007,07,28,07,54,16.00
2007,07,28,07,55,16.10
2007,07,28,07,56,16.10
2007,07,28,07,57,16.20
2007,07,28,07,58,16.10
2007,07,28,07,59,16.20
2007,07,28,08,00,16.20
2007,07,28,08,01,16.10
2007,07,28,08,02,16.10
2007,07,28,08,03,16.10
2007,07,28,08,04,16.10
2007,07,28,08,05,16.10
2007,07,28,08,06,16.10
2007,07,28,08,07,16.10
2007,07,28,08,08,16.10
2007,07,28,08,09,16.10
2007,07,28,08,10,16.20
2007,07,28,08,11,16.20
2007,07,28,08,12,16.20
2007,07,28,08,13,16.30
2007,07,28,08,14,16.30
2007,07,28,08,15,16.30
2007,07,28,08,16,16.30
2007,07,28,08,17,16.40
2007,07,28,08,18,16.40
2007,07,28,08,19,16.50
2007,07,28,08,20,16.50
2007,07,28,08,21,16.60
2007,07,28,08,22,16.70
2007,07,28,08,23,16.70
2007,07,28,08,24,16.80
2007,07,28,08,25,16.90
2007,07,28,08,26,17.00
2007,07,28,08,27,17.00
2007,07,28,08,28,17.10
2007,07,28,08,29,17.20
2007,07,28,08,30,17.20
2007,07,28,08,31,17.30
2007,07,28,08,32,17.30
2007,07,28,08,33,17.20
2007,07,28,08,34,17.30
2007,07,28,08,35,17.30
2007,07,28,08,36,17.30
2007,07,28,08,37,17.40
2007,07,28,08,38,17.40
2007,07,28,08,39,17.40
2007,07,28,08,40,17.40
2007,07,28,08,41,17.40
2007,07,28,08,42,17.40
2007,07,28,08,43,17.40
2007,07,28,08,44,17.40
2007,07,28,08,45,17.50
2007,07,28,08,46,17.50
2007,07,28,08,47,17.50
2007,07,28,08,48,17.50
2007,07,28,08,49,17.50
2007,07,28,08,50,17.50
2007,07,28,08,51,17.50
2007,07,28,08,52,17.40
2007,07,28,08,53,17.30
2007,07,28,08,54,17.30
2007,07,28,08,55,17.30
2007,07,28,08,56,17.30
2007,07,28,08,57,17.20
2007,07,28,08,58,17.10
2007,07,28,08,59,17.10
2007,07,28,09,00,17.10
2007,07,28,09,01,17.10
2007,07,28,09,02,17.00
2007,07,28,09,03,16.90
2007,07,28,09,04,16.90
2007,07,28,09,05,16.90
2007,07,28,09,06,16.90
2007,07,28,09,07,16.90
2007,07,28,09,08,16.90
2007,07,28,09,09,16.90
2007,07,28,09,10,16.90
2007,07,28,09,11,16.80
2007,07,28,09,12,16.70
2007,07,28,09,13,16.70
2007,07,28,09,14,16.70
2007,07,28,09,15,16.70
2007,07,28,09,16,16.70
2007,07,28,09,17,16.70
2007,07,28,09,18,16.70
2007,07,28,09,19,16.70
2007,07,28,09,20,16.80
2007,07,28,09,21,16.80
2007,07,28,09,22,16.80
2007,07,28,09,23,16.80
2007,07,28,09,24,16.70
2007,07,28,09,25,16.70
2007,07,28,09,26,16.70
2007,07,28,09,27,16.70
2007,07,28,09,28,16.70
2007,07,28,09,29,16.70
2007,07,28,09,30,16.70
2007,07,28,09,31,16.80
2007,07,28,09,32,16.80
2007,07,28,09,33,16.90
2007,07,28,09,34,16.90
2007,07,28,09,35,16.90
2007,07,28,09,36,16.90
2007,07,28,09,37,16.90
2007,07,28,09,38,16.80
2007,07,28,09,39,16.80
2007,07,28,09,40,16.80
2007,07,28,09,41,16.90
2007,07,28,09,42,16.90
2007,07,28,09,43,16.90
2007,07,28,09,44,17.00
2007,07,28,09,45,17.00
2007,07,28,09,46,16.90
2007,07,28,09,47,17.00
2007,07,28,09,48,17.10
2007,07,28,09,49,17.00
2007,07,28,09,50,17.00
2007,07,28,09,51,17.00
2007,07,28,09,52,17.00
2007,07,28,09,53,17.10
2007,07,28,09,54,17.20
2007,07,28,09,55,17.20
2007,07,28,09,56,17.20
2007,07,28,09,57,17.30
2007,07,28,09,58,17.30
2007,07,28,09,59,17.30
2007,07,28,10,00,17.40
2007,07,28,10,01,17.40
2007,07,28,10,02,17.40
2007,07,28,10,03,17.40
2007,07,28,10,04,17.40
2007,07,28,10,05,17.40
2007,07,28,10,06,17.40
2007,07,28,10,07,17.30
2007,07,28,10,08,17.30
2007,07,28,10,09,17.40
2007,07,28,10,10,17.40
2007,07,28,10,11,17.40
2007,07,28,10,12,17.50
2007,07,28,10,13,17.40
2007,07,28,10,14,17.40
2007,07,28,10,15,17.50
2007,07,28,10,16,17.60
2007,07,28,10,17,17.60
2007,07,28,10,18,17.70
2007,07,28,10,19,17.80
2007,07,28,10,20,17.90
2007,07,28,10,21,18.00
2007,07,28,10,22,18.00
2007,07,28,10,23,18.10
2007,07,28,10,24,18.20
2007,07,28,10,25,18.20
2007,07,28,10,26,18.20
2007,07,28,10,27,18.20
2007,07,28,10,28,18.10
2007,07,28,10,29,18.10
2007,07,28,10,30,18.00
2007,07,28,10,31,18.00
2007,07,28,10,32,18.00
2007,07,28,10,33,18.10
2007,07,28,10,34,18.10
2007,07,28,10,35,18.20
2007,07,28,10,36,18.30
2007,07,28,10,37,18.40
2007,07,28,10,38,18.40
2007,07,28,10,39,18.40
2007,07,28,10,40,18.40
2007,07,28,10,41,18.40
2007,07,28,10,42,18.40
2007,07,28,10,43,18.50
2007,07,28,10,44,18.50
2007,07,28,10,45,18.40
2007,07,28,10,46,18.40
2007,07,28,10,47,18.50
2007,07,28,10,48,18.60
2007,07,28,10,49,18.60
2007,07,28,10,50,18.60
2007,07,28,10,51,18.60
2007,07,28,10,52,18.60
2007,07,28,10,53,18.70
2007,07,28,10,54,18.80
2007,07,28,10,55,18.90
2007,07,28,10,56,18.90
2007,07,28,10,57,18.90
2007,07,28,10,58,18.90
2007,07,28,10,59,18.90
2007,07,28,11,00,18.80
2007,07,28,11,01,18.70
2007,07,28,11,02,18.80
2007,07,28,11,03,18.90
2007,07,28,11,04,19.00
2007,07,28,11,05,18.90
2007,07,28,11,06,18.90
2007,07,28,11,07,18.90
2007,07,28,11,08,19.00
2007,07,28,11,09,19.10
2007,07,28,11,10,19.10
2007,07,28,11,11,19.10
2007,07,28,11,12,19.20
2007,07,28,11,13,19.20
2007,07,28,11,14,19.20
2007,07,28,11,15,19.30
2007,07,28,11,16,19.30
2007,07,28,11,17,19.30
2007,07,28,11,18,19.30
2007,07,28,11,19,19.30
2007,07,28,11,20,19.50
2007,07,28,11,21,19.50
2007,07,28,11,22,19.60
2007,07,28,11,23,19.70
2007,07,28,11,24,19.80
2007,07,28,11,25,19.80
2007,07,28,11,26,19.70
2007,07,28,11,27,19.70
2007,07,28,11,28,19.70
2007,07,28,11,29,19.60
2007,07,28,11,30,19.50
2007,07,28,11,31,19.40
2007,07,28,11,32,19.30
2007,07,28,11,33,19.20
2007,07,28,11,34,19.20
2007,07,28,11,35,19.20
2007,07,28,11,36,19.10
2007,07,28,11,37,19.20
2007,07,28,11,38,19.20
2007,07,28,11,39,19.10
2007,07,28,11,40,19.20
2007,07,28,11,41,19.30
2007,07,28,11,42,19.30
2007,07,28,11,43,19.40
2007,07,28,11,44,19.50
2007,07,28,11,45,19.60
2007,07,28,11,46,19.70
2007,07,28,11,47,19.60
2007,07,28,11,48,19.60
2007,07,28,11,49,19.60
2007,07,28,11,50,19.70
2007,07,28,11,51,19.70
2007,07,28,11,52,19.80
2007,07,28,11,53,19.80
2007,07,28,11,54,19.80
2007,07,28,11,55,19.60
2007,07,28,11,56,19.60
2007,07,28,11,57,19.60
2007,07,28,11,58,19.50
2007,07,28,11,59,19.40
2007,07,28,12,00,19.50
2007,07,28,12,01,19.70
2007,07,28,12,02,19.80
2007,07,28,12,03,19.80
2007,07,28,12,04,19.90
2007,07,28,12,05,19.90
2007,07,28,12,06,19.90
2007,07,28,12,07,19.90
2007,07,28,12,08,20.00
2007,07,28,12,09,20.10
2007,07,28,12,10,20.20
2007,07,28,12,11,20.30
2007,07,28,12,12,20.30
2007,07,28,12,13,20.40
2007,07,28,12,14,20.40
2007,07,28,12,15,20.40
2007,07,28,12,16,20.30
2007,07,28,12,17,20.30
2007,07,28,12,18,20.30
2007,07,28,12,19,20.30
2007,07,28,12,20,20.20
2007,07,28,12,21,20.10
2007,07,28,12,22,20.00
2007,07,28,12,23,19.90
2007,07,28,12,24,19.70
2007,07,28,12,25,19.50
2007,07,28,12,26,19.40
2007,07,28,12,27,19.30
2007,07,28,12,28,19.30
2007,07,28,12,29,19.30
2007,07,28,12,30,19.30
2007,07,28,12,31,19.50
2007,07,28,12,32,19.60
2007,07,28,12,33,19.60
2007,07,28,12,34,19.70
2007,07,28,12,35,19.60
2007,07,28,12,36,19.60
2007,07,28,12,37,19.50
2007,07,28,12,38,19.50
2007,07,28,12,39,19.40
2007,07,28,12,40,19.40
2007,07,28,12,41,19.50
2007,07,28,12,42,19.60
2007,07,28,12,43,19.80
2007,07,28,12,44,19.90
2007,07,28,12,45,20.00
2007,07,28,12,46,20.10
2007,07,28,12,47,20.10
2007,07,28,12,48,20.00
2007,07,28,12,49,19.80
2007,07,28,12,50,19.70
2007,07,28,12,51,19.70
2007,07,28,12,52,19.70
2007,07,28,12,53,19.80
2007,07,28,12,54,19.90
2007,07,28,12,55,20.00
2007,07,28,12,56,20.10
2007,07,28,12,57,20.20
2007,07,28,12,58,20.40
2007,07,28,12,59,20.50
2007,07,28,13,00,20.60
2007,07,28,13,01,20.60
2007,07,28,13,02,20.60
2007,07,28,13,03,20.50
2007,07,28,13,04,20.40
2007,07,28,13,05,20.30
2007,07,28,13,06,20.30
2007,07,28,13,07,20.30
2007,07,28,13,08,20.10
2007,07,28,13,09,20.00
2007,07,28,13,10,19.80
2007,07,28,13,11,19.60
2007,07,28,13,12,19.40
2007,07,28,13,13,19.30
2007,07,28,13,14,19.20
2007,07,28,13,15,19.10
2007,07,28,13,16,19.00
2007,07,28,13,17,18.90
2007,07,28,13,18,18.80
2007,07,28,13,19,18.80
2007,07,28,13,20,18.80
2007,07,28,13,21,18.80
2007,07,28,13,22,18.90
2007,07,28,13,23,18.90
2007,07,28,13,24,18.80
2007,07,28,13,25,18.70
2007,07,28,13,26,18.60
2007,07,28,13,27,18.50
2007,07,28,13,28,18.50
2007,07,28,13,29,18.30
2007,07,28,13,30,18.30
2007,07,28,13,31,18.20
2007,07,28,13,32,18.20
2007,07,28,13,33,18.30
2007,07,28,13,34,18.30
2007,07,28,13,35,18.50
2007,07,28,13,36,18.70
2007,07,28,13,37,18.90
2007,07,28,13,38,19.00
2007,07,28,13,39,18.90
2007,07,28,13,40,18.80
2007,07,28,13,41,18.80
2007,07,28,13,42,18.70
2007,07,28,13,43,18.80
2007,07,28,13,44,19.00
2007,07,28,13,45,19.10
2007,07,28,13,46,19.20
2007,07,28,13,47,19.20
2007,07,28,13,48,19.40
2007,07,28,13,49,19.40
2007,07,28,13,50,19.60
2007,07,28,13,51,19.70
2007,07,28,13,52,19.70
2007,07,28,13,53,19.60
2007,07,28,13,54,19.50
2007,07,28,13,55,19.40
2007,07,28,13,56,19.50
2007,07,28,13,57,19.50
2007,07,28,13,58,19.60
2007,07,28,13,59,19.80
2007,07,28,14,00,19.90
2007,07,28,14,01,19.90
2007,07,28,14,02,19.90
2007,07,28,14,03,19.90
2007,07,28,14,04,19.90
2007,07,28,14,05,20.00
2007,07,28,14,06,20.00
2007,07,28,14,07,19.90
2007,07,28,14,08,19.90
2007,07,28,14,09,20.00
2007,07,28,14,10,20.00
2007,07,28,14,11,19.80
2007,07,28,14,12,19.80
2007,07,28,14,13,19.80
2007,07,28,14,14,19.70
2007,07,28,14,15,19.80
2007,07,28,14,16,19.80
2007,07,28,14,17,19.70
2007,07,28,14,18,19.80
2007,07,28,14,19,19.90
2007,07,28,14,20,20.10
2007,07,28,14,21,20.20
2007,07,28,14,22,20.30
2007,07,28,14,23,20.40
2007,07,28,14,24,20.50
2007,07,28,14,25,20.60
2007,07,28,14,26,20.70
2007,07,28,14,27,20.80
2007,07,28,14,28,20.80
2007,07,28,14,29,20.70
2007,07,28,14,30,20.60
2007,07,28,14,31,20.50
2007,07,28,14,32,20.30
2007,07,28,14,33,20.30
2007,07,28,14,34,20.20
2007,07,28,14,35,20.10
2007,07,28,14,36,20.10
2007,07,28,14,37,20.00
2007,07,28,14,38,20.10
2007,07,28,14,39,20.10
2007,07,28,14,40,20.10
2007,07,28,14,41,20.10
2007,07,28,14,42,20.00
2007,07,28,14,43,20.00
2007,07,28,14,44,20.00
2007,07,28,14,45,20.10
2007,07,28,14,46,20.20
2007,07,28,14,47,20.10
2007,07,28,14,48,20.10
2007,07,28,14,49,20.00
2007,07,28,14,50,20.10
2007,07,28,14,51,20.10
2007,07,28,14,52,20.20
2007,07,28,14,53,20.30
2007,07,28,14,54,20.30
2007,07,28,14,55,20.40
2007,07,28,14,56,20.50
2007,07,28,14,57,20.50
2007,07,28,14,58,20.50
2007,07,28,14,59,20.60
2007,07,28,15,00,20.60
2007,07,28,15,01,20.40
2007,07,28,15,02,20.30
2007,07,28,15,03,20.20
2007,07,28,15,04,20.30
2007,07,28,15,05,20.40
2007,07,28,15,06,20.50
2007,07,28,15,07,20.60
2007,07,28,15,08,20.60
2007,07,28,15,09,20.50
2007,07,28,15,10,20.40
2007,07,28,15,11,20.50
2007,07,28,15,12,20.50
2007,07,28,15,13,20.60
2007,07,28,15,14,20.60
2007,07,28,15,15,20.50
2007,07,28,15,16,20.50
2007,07,28,15,17,20.40
2007,07,28,15,18,20.20
2007,07,28,15,19,20.10
2007,07,28,15,20,20.00
2007,07,28,15,21,19.90
2007,07,28,15,22,20.00
2007,07,28,15,23,20.00
2007,07,28,15,24,20.10
2007,07,28,15,25,20.10
2007,07,28,15,26,20.20
2007,07,28,15,27,20.30
2007,07,28,15,28,20.40
2007,07,28,15,29,20.50
2007,07,28,15,30,20.50
2007,07,28,15,31,20.50
2007,07,28,15,32,20.60
2007,07,28,15,33,20.70
2007,07,28,15,34,20.70
2007,07,28,15,35,20.60
2007,07,28,15,36,20.50
2007,07,28,15,37,20.40
2007,07,28,15,38,20.40
2007,07,28,15,39,20.40
2007,07,28,15,40,20.30
2007,07,28,15,41,20.30
2007,07,28,15,42,20.40
2007,07,28,15,43,20.40
2007,07,28,15,44,20.30
2007,07,28,15,45,20.20
2007,07,28,15,46,19.90
2007,07,28,15,47,19.80
2007,07,28,15,48,19.70
2007,07,28,15,49,19.60
2007,07,28,15,50,19.50
2007,07,28,15,51,19.50
2007,07,28,15,52,19.50
2007,07,28,15,53,19.50
2007,07,28,15,54,19.60
2007,07,28,15,55,19.60
2007,07,28,15,56,19.60
2007,07,28,15,57,19.60
2007,07,28,15,58,19.70
2007,07,28,15,59,19.70
2007,07,28,16,00,19.70
2007,07,28,16,01,19.70
2007,07,28,16,02,19.70
2007,07,28,16,03,19.70
2007,07,28,16,04,19.80
2007,07,28,16,05,19.80
2007,07,28,16,06,19.90
2007,07,28,16,07,20.10
2007,07,28,16,08,20.10
2007,07,28,16,09,20.00
2007,07,28,16,10,20.00
2007,07,28,16,11,20.00
2007,07,28,16,12,19.80
2007,07,28,16,13,19.80
2007,07,28,16,14,19.70
2007,07,28,16,15,19.60
2007,07,28,16,16,19.60
2007,07,28,16,17,19.70
2007,07,28,16,18,19.80
2007,07,28,16,19,20.00
2007,07,28,16,20,20.10
2007,07,28,16,21,20.30
2007,07,28,16,22,20.40
2007,07,28,16,23,20.40
2007,07,28,16,24,20.50
2007,07,28,16,25,20.60
2007,07,28,16,26,20.50
2007,07,28,16,27,20.50
2007,07,28,16,28,20.60
2007,07,28,16,29,20.70
2007,07,28,16,30,20.60
2007,07,28,16,31,20.40
2007,07,28,16,32,20.30
2007,07,28,16,33,20.10
2007,07,28,16,34,20.10
2007,07,28,16,35,20.10
2007,07,28,16,36,20.20
2007,07,28,16,37,20.30
2007,07,28,16,38,20.30
2007,07,28,16,39,20.30
2007,07,28,16,40,20.00
2007,07,28,16,41,19.80
2007,07,28,16,42,19.90
2007,07,28,16,43,19.90
2007,07,28,16,44,19.90
2007,07,28,16,45,19.90
2007,07,28,16,46,20.00
2007,07,28,16,47,20.00
2007,07,28,16,48,20.00
2007,07,28,16,49,20.00
2007,07,28,16,50,20.10
2007,07,28,16,51,20.10
2007,07,28,16,52,20.20
2007,07,28,16,53,20.30
2007,07,28,16,54,20.40
2007,07,28,16,55,20.40
2007,07,28,16,56,20.30
2007,07,28,16,57,20.20
2007,07,28,16,58,20.10
2007,07,28,16,59,20.00
2007,07,28,17,00,19.90
2007,07,28,17,01,19.90
2007,07,28,17,02,19.90
2007,07,28,17,03,19.80
2007,07,28,17,04,19.80
2007,07,28,17,05,19.80
2007,07,28,17,06,19.70
2007,07,28,17,07,19.70
2007,07,28,17,08,19.80
2007,07,28,17,09,19.80
2007,07,28,17,10,19.70
2007,07,28,17,11,19.70
2007,07,28,17,12,19.70
2007,07,28,17,13,19.70
2007,07,28,17,14,19.80
2007,07,28,17,15,19.90
2007,07,28,17,16,19.90
2007,07,28,17,17,19.80
2007,07,28,17,18,19.90
2007,07,28,17,19,19.90